sat.trackr.live / text

‹ back to catalog

COSMOS 2408

NORAD 28419 · 2004-037A

PAYLOAD ACTIVE UNKNOWN

§ Identity

Operator
Country
CIS
Launch date
2004-09-23
Launch site
PLMSC
Launch vehicle
Mass (kg)
RCS (m²)
0.89

External: N2YO · Heavens-Above · Gunter

§ Orbital elements

Epoch: 2026-05-25T04:45:54.466848Z

Period
115.60 min
Inclination
82.4857°
Eccentricity
0.0015460
Mean motion
12.45679047 rev/d
Perigee alt
1,470.5 km
Apogee alt
1,494.8 km
Semi-major
7,860.8 km
B*
1.1142e-6
RAAN
340.2703°
Arg perigee
321.9351°
Mean anomaly
38.0637°
Rev number
98,504

§ Raw data

COSMOS 24081 28419U 04037A   26145.19854707  .00000010  00000+0  11142-5 0  99912 28419  82.4857 340.2703 0015460 321.9351  38.0637 12.45679047985047

JSON: /api/v1/satellites/28419 · /tle

For live sub-satellite position, see the globe view (requires WebGL).

§ Visibility from observer

Set your observer location to see the next 7 days of passes ≥ 10°. The values pass through the URL so the page stays shareable.

No JS? Fill the form by hand. The geolocation button needs JavaScript.